Location: Unspecified
(0.0000°N, 0.0000°E)
Time: 22:25:24
(UTC+00:00)

Vanguard 1 Rocket - Pass Details

Date: 14 December 2017
Orbit: 653 x 4224 km, 34.3° (Epoch: 16 June)

Event Time Altitude Azimuth Distance (km) Brightness Sun altitude
Rises 16:41:19 0° 303° (WNW) 4,084 11.2 16.8°
Reaches altitude 10° 16:46:44 10° 335° (NNW) 3,807 10.6 15.6°
Maximum altitude 16:49:54 12° 354° (N) 4,078 10.6 14.9°
Drops below altitude 10° 16:53:39 10° 12° (NNE) 4,684 10.7 14.0°
Sets 17:03:24 0° 40° (NE) 6,802 11.3 11.8°
